Location: *
(49.0044°N, 9.5056°E)
Time: 08:11:51
(UTC+00:00)

RESURS DK-1 - Pass Details

Date: 22 September 2019
Orbit: 558 x 560 km, 69.9° (Epoch: 21 October)

Event Time Altitude Azimuth Distance (km) Brightness Sun altitude
Rises 19:21:09 0° 332° (NNW) 2,758 6.8 -20.0°
Reaches altitude 10° 19:23:24 10° 335° (NNW) 1,857 5.7 -20.3°
Maximum altitude 19:27:30 63° 57° (ENE) 631 2.4 -20.9°
Enters shadow 19:27:46 61° 79° (E) 640 2.3 -20.9°
